sat.trackr.live / text

‹ back to catalog

STARLINK-4783

NORAD 53835 · 2022-114T

PAYLOAD ACTIVE UNKNOWN

§ Identity

Operator
Country
US
Launch date
2022-09-19
Launch site
AFETR
Launch vehicle
Mass (kg)
RCS (m²)

Purposes: comms

External: N2YO · Heavens-Above · Gunter

§ Orbital elements

Epoch: 2026-05-25T04:36:32.705280Z

Period
95.44 min
Inclination
53.2139°
Eccentricity
0.0001250
Mean motion
15.08831563 rev/d
Perigee alt
538.9 km
Apogee alt
540.6 km
Semi-major
6,917.9 km
B*
1.6293e-4
RAAN
320.4794°
Arg perigee
89.9843°
Mean anomaly
270.1293°
Rev number
20,438

§ Raw data

STARLINK-47831 53835U 22114T   26145.19204520  .00002306  00000+0  16293-3 0  99992 53835  53.2139 320.4794 0001250  89.9843 270.1293 15.08831563204388

JSON: /api/v1/satellites/53835 · /tle

For live sub-satellite position, see the globe view (requires WebGL).

§ Visibility from observer

Set your observer location to see the next 7 days of passes ≥ 10°. The values pass through the URL so the page stays shareable.

No JS? Fill the form by hand. The geolocation button needs JavaScript.